EHI
0 0 0 0 0 0 0 0 0 1 1 2 6 11 13 13 13 15 18 19 20 25 34 38 38 39 40 41 44 46 46 46 46 46 45 42 39 37 36 33 28 25 24 24
0 0 0 0 0 0 0 0 0 2 3 5 10 15 15 14 16 17 20 23 24 25 30 34 34 34 37 39 42 45 45 46 47 46 45 43 40 38 37 34 30 28 26 24
0 0 0 0 0 0 0 0 2 5 8 11 16 20 18 19 23 23 26 30 31 30 30 31 30 30 32 34 38 42 45 47 48 48 47 46 43 40 37 35 32 29 25 23
0 0 0 0 0 0 1 2 4 9 12 14 18 19 18 22 27 30 31 34 34 34 34 32 29 29 29 30 35 40 44 46 48 49 49 48 45 40 37 34 32 29 25 24
0 0 0 1 1 1 2 4 7 10 13 14 14 13 16 23 28 31 32 33 32 31 31 30 30 31 29 29 32 37 40 43 45 47 48 48 45 40 35 31 29 28 26 25
0 0 0 1 2 2 3 6 10 13 15 16 16 17 22 27 30 31 29 28 27 25 23 25 30 33 33 31 31 32 35 38 41 43 46 46 43 37 32 28 26 25 24 23
0 0 1 2 3 4 7 11 15 16 17 20 23 26 30 34 32 31 28 24 21 20 18 21 26 31 35 35 34 33 33 35 37 38 38 38 37 34 30 27 24 22 21 20
1 2 4 5 7 10 14 17 16 15 16 20 25 28 32 34 32 30 27 22 20 19 17 17 22 28 32 35 36 35 34 34 33 31 28 28 29 29 27 25 21 19 19 19
4 4 6 8 11 14 16 17 15 13 14 17 20 23 26 28 29 28 25 23 22 19 16 16 20 24 28 30 32 31 29 29 29 28 25 25 26 26 25 23 20 18 19 19
8 6 6 7 9 10 11 10 10 10 12 14 16 19 20 22 25 26 25 24 22 18 15 14 16 20 24 26 27 24 21 21 23 24 25 27 28 26 23 20 19 19 19 18
10 8 7 6 5 5 5 5 7 9 12 14 16 16 15 17 20 23 23 22 19 16 14 13 13 17 22 24 24 22 19 18 17 16 18 23 25 22 18 16 15 15 15 16
11 10 9 7 4 3 4 6 9 12 14 15 16 14 14 15 17 18 19 18 15 12 11 12 12 16 21 22 22 21 20 18 14 11 11 15 19 17 12 10 9 7 8 9
8 8 8 6 4 3 4 7 12 15 15 15 14 13 13 14 14 14 15 14 11 9 9 10 12 15 19 20 20 20 20 17 13 11 11 13 15 15 12 9 7 4 3 3
6 7 7 5 4 4 6 8 12 14 14 13 12 12 12 11 11 11 11 11 9 8 8 8 9 13 15 16 17 18 17 15 13 12 11 12 13 13 13 13 12 10 5 2
5 5 5 4 4 5 8 10 11 12 12 11 11 10 10 10 9 9 8 8 7 6 6 6 7 9 10 11 13 15 14 13 11 9 7 8 10 12 13 15 15 14 10 6
3 3 3 3 4 6 8 9 10 11 10 10 9 9 9 9 9 8 7 6 5 4 5 6 6 6 7 9 10 11 10 9 7 4 2 3 6 10 11 12 14 14 12 10
1 1 2 2 3 5 6 7 9 10 10 9 8 7 7 8 9 7 5 4 3 4 6 7 6 5 6 8 8 8 7 6 4 2 1 1 4 7 7 8 10 12 11 10
2 3 4 3 4 5 5 7 9 9 9 8 7 6 5 6 8 7 5 3 2 4 5 5 4 4 4 6 6 6 6 4 3 3 3 3 4 6 6 6 8 9 9 8
5 6 7 7 7 7 6 7 8 8 7 5 5 4 5 6 7 6 5 2 2 3 4 4 3 3 3 3 3 5 5 3 3 5 6 5 6 6 6 6 6 5 5 5
7 8 9 9 8 7 6 6 6 6 5 3 3 4 5 6 6 5 4 2 2 4 4 3 3 3 3 1 1 3 4 3 3 4 5 5 5 5 5 5 4 3 3 3
8 8 9 9 8 7 5 4 4 4 4 3 3 3 4 5 5 4 3 2 3 4 3 2 2 3 2 1 1 2 3 3 3 3 3 3 4 4 3 3 2 1 1 1
8 8 7 8 7 7 6 5 4 4 4 4 3 3 3 4 4 4 3 2 2 1 1 1 2 1 1 0 0 1 2 3 3 3 2 1 2 1 1 1 1 0 0 0
7 7 6 6 6 6 6 5 5 4 4 5 4 3 3 2 2 2 2 1 0 0 0 1 1 0 0 0 0 0 2 3 3 2 1 1 0 0 0 0 0 0 0 0
5 5 5 5 4 4 4 3 3 4 4 4 4 3 2 1 0 0 0 0 0 0 0 0 0 0 0 0 0 0 1 2 2 1 1 0 0 0 0 0 0 0 0 0
4 4 4 4 3 3 2 1 1 1 2 2 1 1 1 0 0 0 0 0 0 0 0 0 0 0 0 0 0 0 1 1 1 0 0 0 0 0 0 0 0 0 0 0
3 3 4 3 2 2 1 0 0 0 0 0 0 0 0 0 0 0 0 0 0 0 0 0 0 0 0 0 0 0 0 0 0 0 0 0 0 0 0 0 0 0 0 0
3 4 4 2 1 2 1 0 0 0 0 0 0 0 0 0 0 0 0 0 0 0 0 0 0 0 0 0 0 0 0 0 0 0 0 0 0 0 0 0 0 0 0 0
Wind_Speed
9 10 8 9 8 7 7 5 2 4 4 2 2 4 6 7 7 6 6 6 5 5 4 4 4 3 3 2 2 2 3 3 3 3 3 2 1 1 1 1 2 1 1 1
10 10 9 9 8 7 7 4 3 4 2 3 5 5 5 5 6 6 6 5 5 5 5 4 3 3 3 2 2 2 1 2 2 2 2 2 2 1 1 1 1 1 1 1
9 8 7 8 8 7 5 3 2 2 2 3 7 7 5 5 6 6 6 5 4 4 4 3 3 3 2 2 2 2 1 1 1 2 2 2 2 1 1 1 1 1 0 1
8 7 8 5 5 5 4 2 2 6 6 6 6 6 7 6 7 6 6 5 5 4 4 3 3 3 2 2 2 1 1 1 1 1 1 1 1 1 1 0 0 0 0 0
7 7 7 5 4 4 3 1 3 4 5 4 7 6 7 8 8 7 6 5 4 4 4 4 4 3 2 2 2 1 1 1 1 1 1 1 1 1 1 1 1 1 1 1
8 8 7 3 3 3 2 3 4 4 3 4 3 2 5 7 7 6 6 4 4 4 4 4 4 3 2 2 1 0 0 0 1 1 1 1 1 1 1 1 1 1 1 1
9 8 3 2 2 2 3 2 4 5 5 6 6 5 6 6 6 6 5 5 5 5 4 3 3 2 2 2 2 1 1 1 1 1 1 1 1 1 1 1 1 2 2 2
7 7 3 5 4 3 4 4 4 5 6 7 7 6 6 6 6 5 4 4 4 3 3 3 3 2 2 2 2 2 1 1 1 0 1 1 1 1 1 2 2 3 3 3
1 1 4 7 7 5 5 5 5 6 6 6 5 5 6 6 5 4 4 4 3 3 3 3 3 2 2 2 2 1 0 0 0 0 1 1 1 2 2 2 3 3 3 3
2 4 5 5 6 6 5 5 5 5 5 4 5 5 5 4 4 4 4 3 3 3 3 2 3 3 2 2 2 1 0 0 0 0 1 1 1 2 2 2 2 2 2 2
2 3 4 5 4 3 4 4 4 4 4 5 4 4 4 3 4 3 3 3 3 3 2 3 3 3 2 2 2 1 1 1 2 2 2 2 1 1 1 1 1 2 2 2
1 2 1 3 3 4 4 4 5 5 5 5 4 4 4 3 3 3 3 3 3 3 3 3 3 3 2 2 1 1 2 2 2 2 2 2 1 1 0 2 2 2 2 2
3 4 4 4 3 4 4 4 4 4 4 3 3 3 3 3 3 3 3 3 3 3 3 3 3 3 2 1 1 1 2 2 3 2 2 2 2 2 1 1 2 2 2 2
3 3 3 2 2 3 3 3 4 4 4 3 3 3 3 3 3 3 3 3 3 3 3 3 3 3 3 2 1 2 3 2 3 3 2 3 2 2 2 2 1 1 2 4
1 1 2 2 2 2 2 2 2 3 3 3 3 3 3 2 2 3 3 4 3 3 3 4 4 4 3 3 2 3 3 2 3 3 3 3 2 2 2 2 1 1 0 1
1 1 1 1 1 1 1 1 1 2 2 2 2 2 2 2 2 3 3 4 3 3 3 3 4 3 3 3 3 2 2 3 4 3 3 3 2 3 2 1 1 1 1 1
3 3 2 1 1 0 0 1 2 2 2 2 2 2 2 2 2 2 3 3 3 3 3 3 4 4 3 3 4 3 2 2 4 4 3 3 2 3 2 2 2 1 1 0
2 2 1 1 0 1 1 1 1 2 2 2 2 2 1 1 2 3 3 3 3 3 4 4 4 4 4 4 3 4 3 3 2 3 3 2 2 2 2 2 2 2 1 0
1 1 0 0 1 1 1 1 1 1 1 1 1 1 2 1 1 2 2 2 3 4 3 4 4 4 4 4 5 3 4 4 3 3 2 3 3 2 3 3 2 2 2 1
2 2 1 0 0 1 1 1 1 1 1 1 1 1 2 1 1 2 2 2 2 3 3 3 3 4 4 4 5 4 4 4 4 3 2 3 3 3 3 3 3 3 2 2
1 1 1 1 1 1 1 1 1 0 1 1 1 1 2 1 1 2 2 2 2 3 3 2 2 3 3 4 4 4 3 3 3 3 3 3 3 3 3 3 3 2 2 2
1 1 1 1 1 1 1 1 1 1 0 1 2 2 2 2 2 2 1 2 2 2 2 2 2 4 4 5 4 4 4 3 3 3 2 2 2 3 3 4 3 3 3 2
1 1 1 1 1 1 1 1 1 1 0 1 1 2 2 2 2 2 2 1 1 1 2 3 3 3 5 4 4 4 4 3 3 3 2 2 3 3 3 4 3 3 2 2
1 1 1 1 1 0 1 1 1 1 1 1 1 1 2 2 2 2 2 1 1 0 2 2 1 2 3 3 3 3 3 3 3 3 3 3 2 2 2 3 3 3 2 3
1 0 0 1 1 1 1 1 1 2 2 1 1 1 1 1 2 2 2 1 1 1 1 1 3 2 2 2 2 3 3 3 3 3 3 3 3 2 3 3 3 2 2 2
2 1 1 1 1 1 1 1 1 1 1 1 1 1 1 1 2 2 2 1 0 1 2 1 1 1 2 2 2 2 2 2 2 3 3 2 2 2 2 3 3 3 2 3
3 2 2 2 2 1 1 1 1 1 1 1 1 1 1 1 1 2 3 2 1 1 1 1 1 1 2 2 2 2 2 2 2 2 3 2 2 2 3 3 2 2 3 3
Wind_Direction
255 262 257 262 258 263 264 269 227 209 214 245 157 108 98 102 103 99 86 73 73 77 74 70 67 79 97 97 100 122 138 159 159 160 159 170 192 194 194 222 241 260 304 313
253 251 258 265 267 258 262 259 196 195 208 186 133 106 89 91 93 93 86 78 68 69 72 70 68 72 87 95 111 117 147 160 150 164 158 166 190 197 199 221 258 288 282 308
269 260 257 266 270 268 268 295 262 173 144 104 92 93 95 95 91 85 89 91 79 70 67 68 76 75 76 86 96 120 151 147 146 158 167 184 213 200 195 202 225 284 323 58
262 266 259 262 291 296 289 316 34 79 77 81 85 85 88 91 87 80 72 71 70 69 74 60 56 52 50 65 88 96 111 121 145 150 165 172 195 200 166 148 160 173 227 237
265 260 256 265 265 262 253 18 49 84 92 95 93 83 78 67 70 70 69 65 69 58 54 50 42 37 37 60 78 61 26 58 111 154 174 173 183 195 163 187 230 229 230 224
261 267 259 244 236 266 227 153 52 59 66 69 72 95 82 69 69 68 63 59 61 61 51 44 34 25 27 28 56 63 306 18 51 100 153 161 164 185 196 216 237 248 256 231
257 262 256 339 350 295 267 70 38 55 54 54 52 55 80 80 70 66 64 58 59 59 54 44 26 18 22 12 358 351 19 52 63 53 137 152 160 164 189 214 244 253 258 246
252 264 282 13 360 31 70 66 57 58 62 64 66 68 71 73 71 63 55 53 49 51 52 41 27 15 10 12 349 349 9 54 93 120 259 218 167 181 198 214 235 247 247 254
276 87 70 53 68 76 74 65 59 60 63 65 68 68 64 65 64 60 50 45 39 37 42 31 14 5 352 350 333 327 335 357 63 312 299 286 227 210 219 226 244 247 240 243
139 124 100 83 78 71 60 58 51 54 61 58 64 67 64 60 58 52 44 36 29 20 16 13 359 348 343 340 343 2 17 315 278 247 257 263 251 234 234 243 248 258 263 270
175 132 114 88 78 82 79 69 58 52 56 61 66 65 63 61 55 45 35 24 19 6 355 353 351 347 345 344 348 338 309 265 253 247 244 253 261 305 280 306 253 255 282 291
162 112 127 105 95 86 78 65 54 45 44 51 54 57 57 57 49 38 22 17 9 359 353 348 348 341 337 332 325 310 289 270 265 258 243 226 213 255 63 209 214 204 232 269
70 65 66 77 63 72 81 70 64 61 59 51 47 56 57 58 44 27 12 6 358 355 355 352 341 332 325 328 306 283 279 282 280 277 270 255 242 234 234 225 224 225 229 240
70 91 105 105 91 72 67 63 58 57 57 56 50 52 53 47 31 12 358 348 351 354 350 352 342 338 333 320 295 283 279 269 280 279 276 277 273 268 257 247 229 211 227 233
74 77 97 89 83 80 67 56 54 53 51 50 54 49 38 32 19 4 356 346 348 346 349 351 353 347 333 319 313 305 303 298 293 289 286 289 285 281 281 282 279 273 234 222
170 135 133 121 103 75 47 28 33 39 40 36 41 42 34 25 15 2 351 343 339 347 353 347 334 325 321 319 307 286 275 280 290 292 291 292 296 288 290 300 298 291 291 314
196 210 212 207 179 177 355 3 19 27 18 7 17 19 24 25 1 346 341 347 350 345 335 333 330 336 337 324 314 300 286 267 263 281 292 298 299 296 301 305 303 299 319 14
198 226 231 164 213 272 305 345 15 17 11 11 18 6 348 349 341 345 338 340 342 340 337 336 344 342 335 338 319 304 299 289 277 281 289 303 302 298 297 294 293 303 354 77
196 222 283 334 305 311 340 8 21 15 11 5 2 343 336 342 348 339 330 331 327 321 333 0 353 333 337 355 335 309 309 317 305 301 300 293 286 302 314 320 321 325 331 337
181 183 192 230 105 75 12 4 359 359 351 343 349 340 331 335 346 334 329 319 323 339 351 1 329 326 338 358 343 323 326 326 320 318 315 319 335 343 340 331 329 337 353 1
169 165 144 104 77 56 16 9 357 330 336 331 301 293 302 314 316 320 315 307 348 6 347 343 320 331 341 343 317 310 323 326 331 341 343 343 346 344 338 334 337 352 7 3
110 86 90 88 81 44 36 30 359 344 0 327 304 299 297 299 304 312 326 323 349 22 327 320 341 3 355 331 317 318 323 325 331 340 346 344 342 341 341 345 353 2 4 1
84 73 60 44 23 18 23 19 346 328 320 297 302 308 309 321 319 310 312 339 2 28 322 355 22 10 337 317 317 318 322 332 340 348 353 351 344 343 343 340 345 353 350 346
107 77 61 41 11 329 333 331 322 298 268 261 279 312 312 298 299 305 332 96 93 305 326 62 124 302 300 306 318 321 328 340 343 339 337 332 331 339 344 333 330 343 350 352
124 117 24 286 261 248 222 246 253 266 274 290 304 300 293 299 305 319 323 33 116 227 319 160 197 244 284 315 332 333 333 342 340 334 326 324 330 336 334 328 337 354 354 356
203 214 189 255 282 283 267 272 297 324 330 330 324 348 339 344 337 321 310 356 81 281 308 36 218 247 292 321 336 336 340 345 333 325 328 329 329 331 332 337 352 1 357 2
201 192 198 226 232 251 280 298 304 324 338 338 317 317 327 334 328 320 320 340 10 328 324 335 326 294 290 308 322 337 341 341 345 347 351 351 349 347 343 347 359 2 0 2